Location: Chevoux
(46.3801°N, 4.9476°E)
Time: 12:33:21
(UTC+00:00)

SKYMED 2 - Pass Details

Date: 28 January 2021
Orbit: 621 x 624 km, 97.9° (Epoch: 07 March)

Event Time Altitude Azimuth Distance (km) Brightness Sun altitude
Rises 17:55:45 0° 12° (NNE) 2,916 6.8 -13.3°
Reaches altitude 10° 17:57:57 10° 12° (NNE) 2,004 5.9 -13.7°
Maximum altitude 18:02:19 84° 284° (WNW) 633 3.6 -14.5°
Drops below altitude 10° 18:06:39 10° 197° (SSW) 1,987 6.5 -15.2°
Sets 18:08:49 0° 197° (SSW) 2,888 7.4 -15.6°
